Rochester, NH

12:16 PM EDT on July 27, 2017 (GMT -0400)
Skyhaven

Weather History for KDAW - December, 2012

Change the Weather History Date:

Tuesday, December 18, 2012

  Actual Average (KPSM) Record (KPSM)
Temperature  
Mean Temperature 38 °F -  
Max Temperature 44 °F 37 °F 54 °F (1984)
Min Temperature 33 °F 22 °F 3 °F (1988)
Degree Days  
Heating Degree Days 26    
Moisture  
Dew Point 38 °F    
Average Humidity 95    
Maximum Humidity 100    
Minimum Humidity 87    
Precipitation  
Precipitation 0.91 in - - ()
Sea Level Pressure  
Sea Level Pressure 29.51 in    
Wind  
Wind Speed 9 mph (North)    
Max Wind Speed 17 mph    
Max Gust Speed 23 mph    
Visibility 3 miles    
Events Rain    
Averages and records for this station are not official NWS values.
T = Trace of Precipitation, MM = Missing Value Source: NWS Daily Summary

Daily Weather History Graph

Daily Weather History Graph

Search for Another Location

Airport or City:

Trip Planner

Search our weather history database for the weather conditions in past years. The results will help you decide how hot, cold, wet, or windy it might be!

Date:

Astronomy

Dec. 18, 2012 Rise Set
Actual Time 7:11 AM EST 4:09 PM EST
Civil Twilight 6:38 AM EST 4:42 PM EST
Nautical Twilight 6:02 AM EST 5:18 PM EST
Astronomical Twilight 5:27 AM EST 5:53 PM EST
Moon 10:40 AM EST (12/18) 10:42 PM EST (12/18)
Length of Visible Light 10h 03m
Length of Day
8h 58m
Waxing Crescent, 34% of the Moon is Illuminated
Dec 18
Waxing Crescent
Dec 20
First Quarter
Dec 28
Full
Jan 4
Last Quarter
Jan 11
New

Hourly Weather History & Observations

Time (EST) Temp. Windchill Dew Point Humidity Pressure Visibility Wind Dir Wind Speed Gust Speed Precip Events Conditions
12:51 AM 33.1 °F 25.5 °F 30.9 °F 92% 29.83 in 5.0 mi North 9.2 mph 18.4 mph 0.00 in Rain Light Freezing Rain
1:11 AM 33.8 °F 25.3 °F 30.2 °F 87% 29.81 in 6.0 mi North 11.5 mph - 0.00 in   Overcast
1:51 AM 33.1 °F 26.1 °F 32.0 °F 96% 29.79 in 8.0 mi NNE 8.1 mph 18.4 mph 0.00 in   Overcast
2:51 AM 34.0 °F 26.6 °F 33.1 °F 96% 29.76 in 5.0 mi NNE 9.2 mph - 0.02 in Rain Light Rain
4:51 AM 35.1 °F 27.9 °F 34.0 °F 96% 29.69 in 4.0 mi North 9.2 mph - 0.03 in Rain Light Rain
5:05 AM 35.6 °F 28.0 °F 33.8 °F 93% 29.68 in 4.0 mi North 10.4 mph 16.1 mph 0.01 in Rain Light Rain
5:51 AM 36.0 °F 29.6 °F 34.0 °F 93% 29.66 in 3.0 mi North 8.1 mph - 0.06 in Rain Rain
7:14 AM 35.6 °F 29.9 °F 35.6 °F 100% 29.62 in 4.0 mi North 6.9 mph - 0.03 in Rain Light Rain
7:51 AM 37.0 °F 31.0 °F 36.0 °F 96% 29.60 in 4.0 mi NNE 8.1 mph - 0.09 in Rain Rain
8:10 AM 37.4 °F 33.8 °F 37.4 °F 100% 29.60 in 2.0 mi NNE 4.6 mph - 0.07 in Rain Rain
8:21 AM 37.4 °F 32.1 °F 37.4 °F 100% 29.60 in 1.8 mi North 6.9 mph - 0.11 in Rain Heavy Rain
8:30 AM 37.4 °F 31.4 °F 37.4 °F 100% 29.59 in 2.0 mi NNW 8.1 mph - 0.14 in Rain Heavy Rain
8:51 AM 37.9 °F 33.5 °F 37.0 °F 97% 29.58 in 2.5 mi North 5.8 mph - 0.21 in Rain Rain
9:03 AM 37.4 °F 31.4 °F 37.4 °F 100% 29.57 in 3.0 mi North 8.1 mph - 0.02 in Rain Rain
9:21 AM 39.2 °F 34.2 °F 37.4 °F 93% 29.55 in 2.0 mi North 6.9 mph - 0.05 in Rain Light Rain
9:51 AM 39.0 °F 34.0 °F 37.9 °F 96% 29.56 in 1.8 mi NNW 6.9 mph - 0.08 in Rain Rain
9:59 AM 39.2 °F 33.6 °F 39.2 °F 100% 29.55 in 3.0 mi North 8.1 mph - 0.01 in Rain Light Rain
10:09 AM 41.0 °F 35.8 °F 39.2 °F 93% 29.54 in 1.8 mi North 8.1 mph - 0.02 in Rain Rain
10:51 AM 41.0 °F 35.8 °F 39.9 °F 96% 29.52 in 1.5 mi North 8.1 mph - 0.10 in Rain Rain
11:51 AM 43.0 °F 38.8 °F 41.0 °F 93% 29.48 in 1.2 mi North 6.9 mph - 0.09 in Rain Rain
12:44 PM 44.6 °F 40.7 °F 42.8 °F 93% 29.45 in 2.0 mi North 6.9 mph - 0.06 in Rain Light Rain
12:51 PM 44.1 °F 39.5 °F 43.0 °F 96% 29.44 in 2.0 mi North 8.1 mph - 0.06 in Rain Light Rain
1:00 PM 44.6 °F 40.7 °F 42.8 °F 93% 29.44 in 1.5 mi North 6.9 mph - 0.01 in Rain Light Rain
1:51 PM 44.1 °F 39.0 °F 43.0 °F 96% 29.42 in 1.5 mi NNE 9.2 mph - 0.04 in Rain Light Rain
2:17 PM 44.6 °F 39.7 °F 42.8 °F 93% 29.41 in 2.0 mi North 9.2 mph - 0.01 in Rain Light Rain
2:27 PM 44.6 °F 39.7 °F 42.8 °F 93% 29.40 in 1.8 mi North 9.2 mph - 0.01 in Rain Light Rain
2:51 PM 44.1 °F 40.1 °F 42.1 °F 93% 29.40 in 1.5 mi North 6.9 mph - 0.02 in Rain Light Rain
3:51 PM 43.0 °F 38.2 °F 42.1 °F 97% 29.40 in 1.2 mi North 8.1 mph - 0.02 in Rain Light Rain
4:22 PM 42.8 °F 37.5 °F 42.8 °F 100% 29.39 in 2.5 mi North 9.2 mph - 0.02 in Rain Light Rain
4:51 PM 43.0 °F 37.7 °F 41.0 °F 93% 29.38 in 2.5 mi North 9.2 mph - 0.03 in Rain Light Rain
5:51 PM 42.1 °F 36.1 °F 39.9 °F 92% 29.37 in 2.0 mi North 10.4 mph - 0.01 in Rain Light Rain
6:51 PM 41.0 °F 34.3 °F 39.9 °F 96% 29.38 in 2.5 mi NNW 11.5 mph - 0.03 in Rain Light Rain
6:58 PM 41.0 °F 34.3 °F 39.2 °F 93% 29.38 in 3.0 mi North 11.5 mph - 0.01 in Rain Light Rain
7:10 PM 41.0 °F 34.3 °F 39.2 °F 93% 29.38 in 3.0 mi NNW 11.5 mph - 0.01 in Rain Light Rain
7:51 PM 39.9 °F 33.4 °F 37.9 °F 93% 29.38 in 5.0 mi NW 10.4 mph - 0.01 in Rain Light Rain
9:51 PM 37.9 °F 29.6 °F 37.0 °F 97% 29.39 in 3.0 mi NNW 13.8 mph 21.9 mph 0.01 in Rain Light Rain
10:47 PM 37.4 °F 28.9 °F 35.6 °F 93% 29.38 in 4.0 mi NNW 13.8 mph 21.9 mph 0.00 in Rain Light Rain
10:51 PM 37.9 °F 28.5 °F 36.0 °F 93% 29.39 in 5.0 mi NNW 17.3 mph 23.0 mph 0.00 in Rain Light Rain
11:19 PM 37.4 °F 29.8 °F 35.6 °F 93% 29.39 in 5.0 mi NNW 11.5 mph - 0.00 in   Overcast
11:51 PM 37.9 °F 30.0 °F 36.0 °F 93% 29.39 in 4.0 mi NW 12.7 mph - 0.00 in   Overcast
11:59 PM 37.4 °F 30.3 °F 35.6 °F 93% 29.39 in 4.0 mi NW 10.4 mph - 0.00 in Rain Light Rain